[Iaude] MPEC L33: 2024 JB29 [a=1.57,e=0.27,i=1.4,H=25.8]

mpec at cfa.harvard.edu mpec at cfa.harvard.edu
Mon Jun 3 12:45:39 EDT 2024


M.P.E.C. 2024-L33                                  Issued 2024 June 3, 16:44 UT

     The Minor Planet Electronic Circulars contain information on unusual
         minor planets, routine data on comets and natural satellites,
         and occasional editorial announcements.  They are published
    on behalf of Division F of the International Astronomical Union by the
          Minor Planet Center, Smithsonian Astrophysical Observatory,
                          Cambridge, MA 02138, U.S.A.
			  
             Prepared using the Tamkin Foundation Computer Network

                              MPC at CFA.HARVARD.EDU
            URL https://www.minorplanetcenter.net/    ISSN 1523-6714

                                   2024 JB29                                    


Observations:
     K24J29B  C2024 05 02.42899015 30 32.916-21 40 40.18         22.74GVEL033F51
     K24J29B  C2024 05 02.44069315 30 34.220-21 40 38.83         22.40GVEL033F51
     K24J29B  C2024 05 02.45238515 30 35.496-21 40 37.50         22.54GVEL033F51
     K24J29B  C2024 05 02.46407615 30 36.797-21 40 36.38         21.93GVEL033F51
     K24J29B  C2024 05 04.41226015 35 03.482-21 35 54.84         21.92GVEL033F51
     K24J29B  C2024 05 04.42550215 35 04.904-21 35 52.64         22.10GVEL033F51
     K24J29B  C2024 05 04.43871915 35 06.373-21 35 51.07         22.36GVEL033F51
     K24J29B  C2024 05 06.51725815 39 44.831-21 29 19.57         21.85GVEL033F51
     K24J29B  C2024 05 08.43747215 44 03.262-21 22 04.20         21.85GVEL033F51
     K24J29B  C2024 05 08.43812215 44 03.344-21 22 03.89         21.77GVEL033F51
     K24J29B  C2024 05 08.44829615 44 04.411-21 22 01.72         21.64GVEL033F51
     K24J29B  C2024 05 08.44894615 44 04.467-21 22 01.68         22.08GVEL033F51
     K24J29B  C2024 05 08.45913215 44 05.557-21 21 59.23         21.78GVEL033F51
     K24J29B  C2024 05 08.45978015 44 05.636-21 21 59.10         21.99GVEL033F51
     K24J29B  C2024 05 08.47058715 44 06.781-21 21 56.18         21.54GVEL033F51
     K24J29B*ZC2024 05 09.43797 15 46 15.64 -21 17 50.6          23.1 GVEL033F51
     K24J29B ZC2024 05 09.44901 15 46 16.82 -21 17 47.9          22.8 GVEL033F51
     K24J29B ZC2024 05 09.46006 15 46 17.96 -21 17 45.2                VEL033F51
     K24J29B  C2024 05 30.42624516 27 51.966-19 16 24.20         22.40GVEL033F51
     K24J29B  C2024 05 30.43337316 27 52.525-19 16 21.84         22.21GVEL033F51
     K24J29B  C2024 05 30.44098016 27 53.118-19 16 19.42         22.56GVEL033F51
     K24J29B  C2024 06 02.43913416 32 52.230-18 59 29.00         22.02GVEL033F51
     K24J29B  C2024 06 02.44730616 32 52.836-18 59 26.28         22.28GVEL033F51
     K24J29B  C2024 06 02.45509816 32 53.395-18 59 23.70         21.56GVEL033F51
     K24J29B  C2024 06 02.46291216 32 53.958-18 59 20.94         22.42GVEL033F51
     K24J29B 3C2024 06 03.28548716 34 17.279-18 54 52.11         21.97GVEL033T14
     K24J29B 3C2024 06 03.28669416 34 17.380-18 54 51.93         22.15GVEL033T14
     K24J29B 3C2024 06 03.28790616 34 17.472-18 54 51.59         21.95GVEL033T14
     K24J29B 3C2024 06 03.28911516 34 17.570-18 54 51.27         21.97GVEL033T14

Observer details:
F51 Pan-STARRS 1, Haleakala.  Observers J. Herman, T. Lowe, P. Minguez, A.
    Schultz, I. Smith.  Measurers K. Chambers, T. de Boer, J. Fairlamb, H.
    Gao, M. Huber, C.-C. Lin, E. Magnier, Y. Ramanjooloo, R. Wainscoat, R.
    Weryk, J. Martin, L. Buzzi, J. Wood.  1.8-m Ritchey-Chretien + CCD.
T14 Canada-France-Hawaii Telescope, Maunakea.  Observers R. Wainscoat, J.
    Silva, T. Burdullis.  Measurers R. Weryk, R. Wainscoat.  3.6-m f/4.1
    reflector + CCD.

Orbital elements:
2024 JB29                                                Earth MOID = 0.1346 AU
Epoch 2024 Mar. 31.0 TT = JDT 2460400.5                 Bell                    
M 339.96071              (2000.0)            P               Q                  
n   0.50165607     Peri.  354.00029     -0.63435904     +0.77275653             
a   1.5686715      Node   236.62523     -0.70820542     -0.59177218             
e   0.2700380      Incl.    1.43270     -0.30989304     -0.22946249             
P   1.96           H   25.80          G   0.15           U   7                  
Residuals in seconds of arc
240502 F51  0.1+  0.2-    240508 F51  0.1-  0.0     240530 F51  0.0   0.2-
240502 F51  0.1+  0.1+    240508 F51  0.3-  0.1-    240602 F51  0.1+  0.0
240502 F51  0.2-  0.2+    240508 F51  0.2-  0.1-    240602 F51  0.3+  0.1-
240502 F51  0.1-  0.0     240508 F51  0.0   0.2-    240602 F51  0.2+  0.1-
240504 F51  0.3+  0.2-    240508 F51  0.0   0.1+    240602 F51  0.0   0.1-
240504 F51  0.3-  0.3+    240509 F51  0.0   0.0     240603 T14  0.0   0.0
240504 F51  0.0   0.0     240509 F51  0.2+  0.0     240603 T14  0.0   0.1-
240506 F51  0.0   0.0     240509 F51  0.0   0.2-    240603 T14  0.0   0.0
240508 F51  0.2-  0.0     240530 F51  0.2-  0.2+    240603 T14  0.0   0.0
240508 F51  0.0   0.2+    240530 F51  0.1-  0.1+

Ephemeris:
2024 JB29                a,e,i = 1.57, 0.27, 1                   q = 1.1451
Date    TT    R. A. (2000) Decl.     Delta      r    Elong.  Phase     V
2024 05 04    15 34 06.0 -21 36 20   0.1410  1.1461   167.1    11.4    22.5
...
2024 05 19    16 06 29.5 -20 25 49   0.1364  1.1475   174.6     4.7    22.2
...
2024 05 27    16 21 50.5 -19 36 17   0.1407  1.1538   177.8     1.9    22.1
...
2024 06 02    16 32 09.6 -19 01 14   0.1470  1.1609   176.3     3.2    22.3
2024 06 03    16 33 46.8 -18 55 52   0.1483  1.1623   175.8     3.7    22.3
2024 06 04    16 35 22.4 -18 50 40   0.1497  1.1638   175.3     4.1    22.4
...
2024 06 10    16 44 27.8 -18 23 48   0.1597  1.1736   171.8     7.1    22.7
...
2024 06 18    16 55 42.5 -18 01 01   0.1774  1.1895   166.9    11.1    23.1
...
2024 07 03    17 15 35.5 -17 55 18   0.2242  1.2270   157.6    18.4    23.9

M. P. C. Staff               (C) Copyright 2024 MPC           M.P.E.C. 2024-L33





More information about the Iaude mailing list